Date,TemperatureHighF,TemperatureAvgF,TemperatureLowF,DewpointHighF,DewpointAvgF,DewpointLowF,HumidityHigh,HumidityAvg,HumidityLow,PressureMaxIn,PressureMinIn,WindSpeedMaxMPH,WindSpeedAvgMPH,GustSpeedMaxMPH,PrecipitationSumIn
2013-5-1,66,48,32,40,34,30,95,63,28,30.58,30.47,3,0,5,0.00
2013-5-2,71,54,38,48,40,35,92,63,33,30.55,30.37,2,0,4,0.00
2013-5-3,73,56,40,51,44,37,94,66,38,30.40,30.23,3,0,6,0.00
2013-5-4,80,61,43,53,45,40,96,63,27,30.23,29.99,4,0,6,0.00
2013-5-5,84,65,45,50,45,40,84,54,23,29.99,29.76,2,0,6,0.00
2013-5-6,86,66,48,54,46,40,81,52,20,29.85,29.76,3,0,3,0.00
2013-5-7,57,52,49,50,48,46,92,87,78,29.97,29.83,1,0,3,0.00
2013-5-8,68,58,51,56,52,49,95,79,59,30.17,30.10,1,0,4,0.00
2013-5-9,73,57,46,57,50,44,96,81,51,30.24,30.13,0,0,3,0.01
2013-5-10,82,64,47,57,51,46,96,66,35,30.21,30.12,3,0,3,0.00
2013-5-11,82,63,51,61,52,43,84,68,38,30.19,30.00,2,0,3,0.00
2013-5-12,72,63,58,61,57,54,95,82,55,30.11,30.03,1,0,6,0.09
2013-5-13,67,58,46,57,53,41,95,84,52,30.23,29.94,7,0,16,0.19
2013-5-14,66,53,42,45,41,37,92,67,37,30.25,30.13,0,0,6,0.00
2013-5-15,66,52,41,52,46,39,94,82,51,30.15,30.03,0,0,5,0.06
2013-5-16,72,60,48,57,52,46,96,76,46,30.03,29.88,5,0,7,0.18
2013-5-17,61,54,51,52,49,46,95,84,58,30.10,29.98,5,0,7,0.11
2013-5-18,58,53,49,53,49,46,95,89,71,30.29,30.10,0,0,5,0.20
2013-5-19,58,53,51,55,51,49,96,94,89,30.43,30.29,0,0,3,0.19
2013-5-20,67,56,48,56,50,46,95,81,56,30.38,29.92,2,0,5,0.00
2013-5-21,56,49,44,50,45,41,95,86,69,29.92,29.81,6,0,8,0.40
2013-5-22,51,45,40,46,41,38,94,89,76,29.96,29.88,8,0,10,0.36
2013-5-23,53,47,42,50,46,40,97,93,82,30.02,29.96,3,0,7,0.33
2013-5-24,60,51,46,54,48,45,96,90,69,30.09,29.98,2,0,5,0.15
2013-5-25,64,54,47,52,48,45,95,81,54,30.07,29.98,3,0,3,0.00
2013-5-26,64,54,48,59,51,46,96,89,74,30.01,29.95,2,0,6,0.17
2013-5-27,60,53,48,58,52,46,96,95,92,29.99,29.72,3,0,7,0.41
2013-5-28,62,55,50,55,50,48,96,87,68,29.90,29.78,7,0,10,0.02
2013-5-29,56,52,49,53,50,47,97,93,81,30.01,29.69,4,0,10,0.38
2013-5-30,62,52,47,50,47,44,95,82,56,30.27,30.01,6,0,8,0.09
2013-5-31,68,55,47,54,48,45,97,80,49,30.35,30.26,1,0,3,0.01